TimeCDT,TemperatureF,Dew PointF,Humidity,Sea Level PressureIn,VisibilityMPH,Wind Direction,Wind SpeedMPH,Gust SpeedMPH,PrecipitationIn,Events,Conditions,WindDirDegrees,DateUTC
12:53 AM,69.1,68.0,96,29.91,10.0,SW,5.8,-,0.01,,Scattered Clouds,230,2013-07-21 05:53:00
1:53 AM,69.1,68.0,96,29.89,10.0,SSE,5.8,-,0.01,,Mostly Cloudy,160,2013-07-21 06:53:00
2:53 AM,69.1,68.0,96,29.88,10.0,Calm,Calm,-,N/A,,Clear,0,2013-07-21 07:53:00
3:53 AM,70.0,68.0,93,29.87,10.0,SSW,4.6,-,N/A,,Mostly Cloudy,200,2013-07-21 08:53:00
4:53 AM,70.0,69.1,97,29.88,10.0,SSE,3.5,-,N/A,,Partly Cloudy,150,2013-07-21 09:53:00
5:53 AM,69.1,68.0,96,29.89,10.0,South,4.6,-,N/A,,Partly Cloudy,190,2013-07-21 10:53:00
6:53 AM,70.0,69.1,97,29.90,10.0,SSW,3.5,-,N/A,,Mostly Cloudy,200,2013-07-21 11:53:00
7:50 AM,69.8,69.8,100,29.95,2.5,SSW,3.5,-,0.02,Rain,Light Rain,210,2013-07-21 12:50:00
7:53 AM,70.0,69.1,97,29.91,6.0,SSW,4.6,-,0.03,Rain,Light Rain,210,2013-07-21 12:53:00
8:53 AM,72.0,70.0,93,29.93,10.0,SW,5.8,-,N/A,,Mostly Cloudy,220,2013-07-21 13:53:00
9:53 AM,73.0,70.0,90,29.93,10.0,SSW,4.6,-,0.00,,Overcast,200,2013-07-21 14:53:00
10:53 AM,73.0,70.0,90,29.94,10.0,SSW,5.8,-,N/A,,Mostly Cloudy,210,2013-07-21 15:53:00
11:53 AM,75.0,71.1,87,29.94,10.0,SSW,5.8,-,0.00,,Mostly Cloudy,200,2013-07-21 16:53:00
12:53 PM,77.0,70.0,79,29.92,10.0,WSW,5.8,-,N/A,,Scattered Clouds,240,2013-07-21 17:53:00
1:53 PM,79.0,70.0,74,29.89,10.0,South,6.9,-,N/A,,Partly Cloudy,170,2013-07-21 18:53:00
2:53 PM,79.0,70.0,74,29.87,10.0,SW,4.6,-,N/A,,Mostly Cloudy,220,2013-07-21 19:53:00
3:53 PM,81.0,69.1,67,29.86,10.0,South,4.6,-,N/A,,Mostly Cloudy,180,2013-07-21 20:53:00
4:53 PM,79.0,70.0,74,29.86,10.0,SW,3.5,-,N/A,,Mostly Cloudy,220,2013-07-21 21:53:00
5:53 PM,78.1,69.1,74,29.84,10.0,South,6.9,-,N/A,,Overcast,170,2013-07-21 22:53:00
6:53 PM,79.0,71.1,77,29.83,10.0,SE,8.1,-,N/A,,Partly Cloudy,140,2013-07-21 23:53:00
7:53 PM,75.0,70.0,84,29.83,10.0,SSE,3.5,-,N/A,,Clear,160,2013-07-22 00:53:00
8:53 PM,73.0,71.1,93,29.84,10.0,Calm,Calm,-,N/A,,Overcast,0,2013-07-22 01:53:00
9:53 PM,73.0,71.1,93,29.86,10.0,SSW,3.5,-,N/A,,Overcast,200,2013-07-22 02:53:00
10:53 PM,71.1,70.0,96,29.85,10.0,South,5.8,-,N/A,,Clear,180,2013-07-22 03:53:00
11:53 PM,71.1,69.1,93,29.85,10.0,Calm,Calm,-,N/A,,Scattered Clouds,0,2013-07-22 04:53:00